Lac la Martre, Northwest Territories

5:02 PM MDT on March 26, 2017 (GMT -0600)
Lac la Martre

Weather History for CWMT - September, 2012

Change the Weather History Date:

Saturday, September 15, 2012

  Actual Average Record
Temperature  
Mean Temperature 38 °F -  
Max Temperature 51 °F - - ()
Min Temperature 24 °F - - ()
Degree Days  
Heating Degree Days 28    
Moisture  
Dew Point 32 °F    
Average Humidity 75    
Maximum Humidity 97    
Minimum Humidity 38    
Precipitation  
Precipitation 0.00 in - - ()
Sea Level Pressure  
Sea Level Pressure 30.13 in    
Wind  
Wind Speed 3 mph ()    
Max Wind Speed 9 mph    
Max Gust Speed -    
T = Trace of Precipitation, MM = Missing Value Source: Averaged Metar Reports

Daily Weather History Graph

Daily Weather History Graph

Search for Another Location

Airport or City:

Trip Planner

Search our weather history database for the weather conditions in past years. The results will help you decide how hot, cold, wet, or windy it might be!

Date:

Astronomy

Sep. 15, 2012 Rise Set
Actual Time 7:15 AM MDT 8:11 PM MDT
Civil Twilight 6:27 AM MDT 8:58 PM MDT
Nautical Twilight 5:28 AM MDT 9:56 PM MDT
Astronomical Twilight 4:18 AM MDT 11:05 PM MDT
Moon 7:01 AM MDT (9/15) 7:22 PM MDT (9/15)
Length of Visible Light 14h 30m
Length of Day
12h 56m
Waning Crescent, 0% of the Moon is Illuminated
Sep 15
Waning Crescent
Sep 15
New
Sep 22
First Quarter
Sep 29
Full
Oct 8
Last Quarter

Hourly Weather History & Observations

Time (MDT) Temp. Windchill Dew Point Humidity Pressure Visibility Wind Dir Wind Speed Gust Speed Precip Events Conditions
12:00 AM 36 °F - 33 °F 83% 30.01 in - NNW 4.6 mph - -  
12:00 AM 36.5 °F 32.7 °F 31.3 °F 81% 30.01 in - NNW 4.6 mph - N/A   Unknown
1:00 AM 32.9 °F 28.5 °F 31.1 °F 93% 30.02 in - North 4.6 mph - N/A   Unknown
2:00 AM 33.1 °F - 32.0 °F 96% 30.04 in - North 2.3 mph - N/A   Unknown
3:00 AM 30.4 °F - 29.1 °F 95% 30.05 in - North 2.3 mph - N/A   Unknown
4:00 AM 29.3 °F - 28.4 °F 96% 30.07 in - North 1.2 mph - N/A   Unknown
5:00 AM 28.4 °F - 27.7 °F 97% 30.08 in - East 1.2 mph - N/A   Unknown
6:00 AM 26 °F - 25 °F 92% 30.09 in - SSW 1.2 mph - -  
6:00 AM 26.1 °F - 24.6 °F 94% 30.09 in - SSW 1.2 mph - N/A   Unknown
7:00 AM 24.6 °F - 23.4 °F 95% 30.11 in - Calm Calm - N/A   Unknown
8:00 AM 26.2 °F - 25.2 °F 96% 30.12 in - East 1.2 mph - N/A   Unknown
9:00 AM 35.6 °F - 34.0 °F 94% 30.14 in - East 1.2 mph - N/A   Unknown
10:00 AM 42.1 °F - 36.1 °F 79% 30.14 in - Calm Calm - N/A   Unknown
11:00 AM 45.3 °F - 35.1 °F 67% 30.15 in - South 2.3 mph - N/A   Unknown
12:00 PM 47 °F - 29 °F 38% 30.15 in - South 5.8 mph - -  
12:00 PM 46.8 °F - 29.3 °F 51% 30.15 in - South 5.8 mph - N/A   Unknown
1:00 PM 48.6 °F - 30.6 °F 50% 30.16 in - SSE 6.9 mph - N/A   Unknown
2:00 PM 48.7 °F - 31.6 °F 52% 30.17 in - SSW 4.6 mph - N/A   Unknown
3:00 PM 49.1 °F - 31.5 °F 51% 30.17 in - South 3.5 mph - N/A   Unknown
4:00 PM 51.1 °F - 35.1 °F 54% 30.17 in - South 4.6 mph - N/A   Unknown
5:00 PM 50.0 °F - 33.8 °F 54% 30.17 in - South 5.8 mph - N/A   Unknown
6:00 PM 50 °F - 35 °F 43% 30.18 in - SSW 6.9 mph - -  
6:00 PM 49.6 °F - 34.5 °F 56% 30.18 in - SSW 6.9 mph - N/A   Unknown
7:00 PM 49.1 °F - 36.5 °F 62% 30.17 in - SSW 6.9 mph - N/A   Unknown
8:00 PM 46.6 °F - 37.9 °F 72% 30.18 in - SSW 6.9 mph - N/A   Unknown
9:00 PM 43.9 °F 38.8 °F 38.5 °F 81% 30.19 in - SSW 9.2 mph - N/A   Unknown
10:00 PM 43.0 °F 38.2 °F 38.3 °F 84% 30.19 in - South 8.1 mph - N/A   Unknown
11:00 PM 42.3 °F 38.6 °F 38.7 °F 87% 30.18 in - South 5.8 mph - N/A   Unknown